User: anonymous   Login
Location: Unspecified
(0.0000°N, 0.0000°E)
Time: 15:26:40
(UTC+01:00)
Language:

ARIANE 5 R/B - Orbit

View from above orbital plane
View from above orbital plane
View from above satellite
View from above satellite

Ground track
Ground track

The orbit data is extracted from the following two-line orbital elements,

1 28886U 05041C   14349.46151694 -.00000175  00000-0 -89907-3 0  6492
2 28886 008.2736 349.7078 7187579 138.1300 004.3780 02.24315005 75194
Epoch (UTC): 15 December 2014 11:04:35
Eccentricity: 0.7187579
inclination: 8.2736°
perigee height: 554 km
apogee height: 35990 km
right ascension of ascending node: 349.7078°
argument of perigee: 138.1300°
revolutions per day: 2.24315005
mean anomaly at epoch: 4.3780°
orbit number at epoch: 7519

The dashed part of the orbit path shows where the satellite is in the earth's shadow,  

DLR